| time (UTC) | temp C | wind direction | speed KPH | gust KPH | rain 1hr cm | rain 24hr cm | rain mn cm | humidity % | barometer mb |
| 20260510212705 | 14 | 360 | 8.0 | 8.0 | 0.00 | 0.00 | 0.00 | 38 | 1024.3 |
| 20260510210706 | 14 | 286 | 8.0 | 8.0 | 0.00 | 0.00 | 0.00 | 37 | 1024.2 |
| 20260510204705 | 14 | 232 | 9.7 | 9.7 | 0.00 | 0.00 | 0.00 | 39 | 1024.2 |
| 20260510202705 | 13 | 24 | 4.8 | 4.8 | 0.00 | 0.00 | 0.00 | 41 | 1024.3 |
| 20260510200705 | 13 | 346 | 6.4 | 6.4 | 0.00 | 0.00 | 0.00 | 41 | 1024.4 |
| 20260510194705 | 13 | 318 | 8.0 | 8.0 | 0.00 | 0.00 | 0.00 | 42 | 1024.4 |
| 20260510192705 | 12 | 270 | 6.4 | 6.4 | 0.00 | 0.00 | 0.00 | 43 | 1024.6 |
| 20260510190705 | 12 | 9 | 8.0 | 8.0 | 0.00 | 0.00 | 0.00 | 41 | 1024.5 |
| 20260510184705 | 12 | 15 | 8.0 | 8.0 | 0.00 | 0.00 | 0.00 | 42 | 1024.7 |
| 20260510182705 | 12 | 306 | 11.3 | 11.3 | 0.00 | 0.00 | 0.00 | 44 | 1024.7 |
| 20260510180705 | 12 | 342 | 9.7 | 9.7 | 0.00 | 0.00 | 0.00 | 44 | 1024.6 |
| 20260510174705 | 11 | 337 | 11.3 | 11.3 | 0.00 | 0.00 | 0.00 | 45 | 1024.5 |
| 20260510172705 | 11 | 342 | 9.7 | 9.7 | 0.00 | 0.00 | 0.00 | 47 | 1024.5 |
| 20260510170705 | 11 | 357 | 11.3 | 11.3 | 0.00 | 0.00 | 0.00 | 46 | 1024.4 |
| 20260510164705 | 11 | 1 | 8.0 | 8.0 | 0.00 | 0.00 | 0.00 | 48 | 1024.6 |
| 20260510162705 | 10 | 359 | 12.9 | 12.9 | 0.00 | 0.00 | 0.00 | 49 | 1024.3 |
| 20260510160705 | 10 | 349 | 9.7 | 9.7 | 0.00 | 0.00 | 0.00 | 48 | 1024.4 |
| 20260510154705 | 10 | 338 | 9.7 | 9.7 | 0.00 | 0.00 | 0.00 | 49 | 1024.3 |
| 20260510152705 | 9 | 7 | 12.9 | 12.9 | 0.00 | 0.00 | 0.00 | 48 | 1024.3 |
| 20260510150705 | 9 | 7 | 9.7 | 9.7 | 0.00 | 0.00 | 0.00 | 51 | 1024.1 |
| 20260510144705 | 8 | 2 | 11.3 | 11.3 | 0.00 | 0.00 | 0.00 | 52 | 1024.1 |
| 20260510142705 | 8 | 344 | 12.9 | 12.9 | 0.00 | 0.00 | 0.00 | 56 | 1024.0 |
| 20260510140705 | 8 | 354 | 9.7 | 9.7 | 0.00 | 0.00 | 0.00 | 61 | 1023.9 |
| 20260510134706 | 7 | 332 | 8.0 | 8.0 | 0.00 | 0.00 | 0.00 | 66 | 1023.9 |
| 20260510132705 | 7 | 347 | 6.4 | 6.4 | 0.00 | 0.00 | 0.00 | 74 | 1023.9 |
| 20260510130705 | 6 | 360 | 9.7 | 9.7 | 0.00 | 0.00 | 0.00 | 75 | 1023.9 |
| 20260510124705 | 6 | 355 | 4.8 | 4.8 | 0.00 | 0.00 | 0.00 | 73 | 1023.8 |
| 20260510122705 | 6 | 355 | 3.2 | 3.2 | 0.00 | 0.00 | 0.00 | 77 | 1023.5 |
| 20260510120705 | 5 | 233 | 3.2 | 3.2 | 0.00 | 0.00 | 0.00 | 77 | 1023.4 |
| 20260510114705 | 5 | 225 | 3.2 | 3.2 | 0.00 | 0.00 | 0.00 | 76 | 1023.1 |
| 20260510112705 | 5 | 234 | 3.2 | 3.2 | 0.00 | 0.00 | 0.00 | 74 | 1022.9 |
| 20260510110705 | 5 | 230 | 4.8 | 4.8 | 0.00 | 0.00 | 0.00 | 75 | 1022.7 |
| 20260510104705 | 5 | 243 | 0.0 | 0.0 | 0.00 | 0.00 | 0.00 | 73 | 1022.4 |
| 20260510102705 | 5 | 202 | 0.0 | 0.0 | 0.00 | 0.00 | 0.00 | 73 | 1022.2 |
| 20260510100705 | 5 | 267 | 1.6 | 1.6 | 0.00 | 0.00 | 0.00 | 71 | 1021.8 |
| 20260510094705 | 5 | 340 | 3.2 | 3.2 | 0.00 | 0.00 | 0.00 | 68 | 1021.5 |
| 20260510092705 | 6 | 354 | 4.8 | 4.8 | 0.00 | 0.00 | 0.00 | 67 | 1021.3 |
| 20260510090705 | 6 | 348 | 6.4 | 6.4 | 0.00 | 0.00 | 0.00 | 67 | 1021.2 |
| 20260510084705 | 6 | 360 | 6.4 | 6.4 | 0.00 | 0.00 | 0.00 | 67 | 1021.0 |
| 20260510082705 | 5 | 190 | 1.6 | 1.6 | 0.00 | 0.00 | 0.00 | 71 | 1020.6 |
| 20260510080705 | 5 | 223 | 3.2 | 3.2 | 0.00 | 0.00 | 0.00 | 65 | 1020.3 |
| 20260510074705 | 5 | 250 | 4.8 | 4.8 | 0.00 | 0.00 | 0.00 | 64 | 1020.2 |
| 20260510072705 | 5 | 230 | 4.8 | 4.8 | 0.00 | 0.00 | 0.00 | 64 | 1020.2 |
| 20260510070705 | 5 | 230 | 4.8 | 4.8 | 0.00 | 0.00 | 0.00 | 63 | 1020.0 |
| 20260510064705 | 6 | 225 | 4.8 | 4.8 | 0.00 | 0.00 | 0.00 | 61 | 1019.9 |
| 20260510062705 | 6 | 242 | 4.8 | 4.8 | 0.00 | 0.00 | 0.00 | 59 | 1019.8 |
| 20260510060705 | 6 | 225 | 4.8 | 4.8 | 0.00 | 0.00 | 0.00 | 58 | 1019.8 |
| 20260510054705 | 6 | 240 | 4.8 | 4.8 | 0.00 | 0.00 | 0.00 | 58 | 1019.7 |
| 20260510052705 | 7 | 242 | 4.8 | 4.8 | 0.00 | 0.00 | 0.00 | 57 | 1019.5 |
| 20260510050705 | 7 | 245 | 4.8 | 4.8 | 0.00 | 0.00 | 0.00 | 57 | 1019.4 |
| 20260510044705 | 7 | 235 | 4.8 | 4.8 | 0.00 | 0.00 | 0.00 | 55 | 1019.3 |
| 20260510042705 | 7 | 239 | 4.8 | 4.8 | 0.00 | 0.00 | 0.00 | 56 | 1019.2 |
| 20260510040705 | 8 | 241 | 3.2 | 3.2 | 0.00 | 0.00 | 0.00 | 54 | 1018.9 |
| 20260510034705 | 8 | 338 | 1.6 | 1.6 | 0.00 | 0.00 | 0.00 | 51 | 1018.8 |
| 20260510032705 | 9 | 331 | 4.8 | 4.8 | 0.00 | 0.00 | 0.00 | 50 | 1018.6 |
| 20260510030705 | 10 | 358 | 6.4 | 6.4 | 0.00 | 0.00 | 0.00 | 49 | 1018.3 |
| 20260510024705 | 10 | 350 | 6.4 | 6.4 | 0.00 | 0.00 | 0.00 | 47 | 1017.9 |
| 20260510022705 | 10 | 348 | 6.4 | 6.4 | 0.00 | 0.00 | 0.00 | 46 | 1017.3 |
| 20260510020705 | 11 | 353 | 6.4 | 6.4 | 0.00 | 0.00 | 0.00 | 46 | 1016.8 |
| 20260510014705 | 11 | 343 | 11.3 | 11.3 | 0.00 | 0.00 | 0.00 | 43 | 1016.4 |
| 20260510012705 | 11 | 343 | 6.4 | 6.4 | 0.00 | 0.00 | 0.00 | 42 | 1016.0 |
| 20260510010705 | 12 | 360 | 9.7 | 9.7 | 0.00 | 0.00 | 0.00 | 42 | 1015.7 |
| 20260510004705 | 12 | 345 | 8.0 | 8.0 | 0.00 | 0.00 | 0.00 | 40 | 1015.3 |
| 20260510002705 | 12 | 1 | 11.3 | 11.3 | 0.00 | 0.00 | 0.00 | 38 | 1015.0 |
| 20260510000705 | 13 | 355 | 11.3 | 11.3 | 0.00 | 0.00 | 0.00 | 36 | 1014.6 |
| 20260509234705 | 13 | 10 | 11.3 | 11.3 | 0.00 | 0.00 | 0.00 | 36 | 1014.4 |
| 20260509232705 | 15 | 355 | 14.5 | 14.5 | 0.00 | 0.00 | 0.00 | 35 | 1014.1 |
| 20260509230705 | 15 | 11 | 14.5 | 14.5 | 0.00 | 0.00 | 0.00 | 34 | 1014.0 |
| 20260509224705 | 14 | 352 | 11.3 | 11.3 | 0.00 | 0.00 | 0.00 | 36 | 1013.9 |
| 20260509222705 | 15 | 353 | 11.3 | 11.3 | 0.00 | 0.00 | 0.00 | 36 | 1013.6 |
| 20260509220705 | 15 | 352 | 11.3 | 11.3 | 0.00 | 0.00 | 0.00 | 36 | 1013.5 |
| 20260509214705 | 15 | 11 | 17.7 | 17.7 | 0.00 | 0.00 | 0.00 | 34 | 1013.5 |